User: anonymous   Login
Location: Fort Wayne
(41.1310°N, 85.1290°W)
Time: 09:32:24
(UTC-04:00)
Language:

Meteor 2-10 Rocket - Orbit

View from above orbital plane
View from above orbital plane
View from above satellite
View from above satellite

Ground track
Ground track

The orbit data is extracted from the following two-line orbital elements,

1 14453U 83109B   14304.09729718  .00000194  00000-0  74198-4 0  2690
2 14453 081.1675 352.0760 0104097 321.3300 097.2075 14.24527789610830
Epoch (UTC): 31 October 2014 02:20:06
Eccentricity: 0.0104097
inclination: 81.1675°
perigee height: 735 km
apogee height: 885 km
right ascension of ascending node: 352.0760°
argument of perigee: 321.3300°
revolutions per day: 14.24527789
mean anomaly at epoch: 97.2075°
orbit number at epoch: 61083

The dashed part of the orbit path shows where the satellite is in the earth's shadow,  

DLR